Flag for U.S.A. Weather past 2 weeks in Fall River, Massachusetts, U.S.A.

Now
36 °F

Sunny.


Feels Like: 28 °F
Forecast: 30 / 45 °F
Wind: 12 mph from North

Location: New Bedford Regional Airport

Current Time: Apr 1, 2015 at 9:14:11 AM

Latest Report: Apr 1, 2015 at 8:53 AM


Visibility: 10 mi

Pressure: 29.94 "Hg

Humidity: 42%

Dew point: 15 °F

Location of Fall RiverLocation

Historic Weather in Fall River — Graph

°F

Fall River temperature yesterday

Maximum temperature yesterday: 49 °F (at 12:53 PM)
Minimum temperature yesterday: 28 °F (at 1:53 AM)
Average temperature yesterday: 40 °F

Past Weeks' High & Low Weather Summary

 TemperatureHumidityPressure
High54 °F (Mar 26, 9:53 PM)100% (Mar 26, 4:53 AM)30.42 "Hg (Mar 26, 4:53 AM)
Low15 °F (Mar 20, 5:53 AM)18% (Mar 19, 3:53 PM)29.39 "Hg (Mar 17, 3:53 PM)
Average34 °F65%29.98 "Hg
* Reported Mar 17 7:53 AM — Apr 1 7:53 AM, Fall River, Weather by CustomWeather, © 2015

Note: Actual official high and low records may vary slightly from our data, if they occured in-between our weather recording intervals... More about our weather records

Advertising

Fall River weather history for previous 24 hours

 ConditionsComfort  
Time TempWeatherWind HumidityBarometerVisibility
7:53 AM
Wed, Apr 1
34 °FSunny.9 mph44%29.92 "Hg10 mi
6:53 AM31 °FClear.7 mph52%29.90 "Hg10 mi
5:53 AM32 °FClear.7 mph52%29.86 "Hg10 mi
4:53 AM34 °FClear.7 mph46%29.82 "Hg10 mi
3:53 AM36 °FClear.8 mph44%29.79 "Hg10 mi
2:53 AM37 °FClear.7 mph48%29.76 "Hg10 mi
1:53 AM37 °FPassing clouds.8 mph70%29.75 "Hg10 mi
12:53 AM37 °FPassing clouds.3 mph86%29.75 "Hg10 mi
11:53 PM
Tue, Mar 31
37 °FOvercast.No wind86%29.74 "Hg10 mi
10:53 PM38 °FOvercast.No wind86%29.76 "Hg10 mi
9:53 PM38 °FLight rain. Mostly cloudy.No wind86%29.75 "Hg10 mi
8:53 PM39 °FOvercast.8 mph79%29.77 "Hg10 mi
7:53 PM41 °FOvercast.10 mph67%29.76 "Hg10 mi
6:53 PM45 °FOvercast.8 mph48%29.74 "Hg10 mi
5:53 PM45 °FOvercast.8 mph45%29.73 "Hg10 mi
4:53 PM45 °FOvercast.8 mph45%29.72 "Hg10 mi
3:53 PM45 °FOvercast.13 mph48%29.70 "Hg10 mi
2:53 PM48 °FSunny.15 mph37%29.71 "Hg10 mi
1:53 PM49 °FSunny.13 mph38%29.72 "Hg10 mi
12:53 PM49 °FSunny.9 mph38%29.73 "Hg10 mi
11:53 AM48 °FPassing clouds.12 mph41%29.76 "Hg10 mi
10:53 AM47 °FScattered clouds.12 mph39%29.77 "Hg10 mi
9:53 AM45 °FSunny.14 mph48%29.78 "Hg10 mi
Weather by CustomWeather, © 2015

See weather overviewHow to use our weather pages